SCP
0 0 0 0 0 0 0 0 0 0 0 0 0 0 0 0 0 0 0 0 0 0 0 0 0 0 0 0 0 0 0 0 0 0 0 0 0 0
0 0 0 0 0 0 0 0 0 0 0 0 0 0 0 0 0 0 0 0 0 0 0 0 0 0 0 0 0 0 0 0 0 0 0 0 0 0
0 0 0 0 0 0 0 0 0 0 0 0 0 0 0 0 0 0 0 0 0 0 0 0 0 0 0 0 0 0 0 0 0 0 0 0 0 0
0 0 0 0 0 0 0 0 0 0 0 0 0 0 0 0 0 0 0 0 0 0 0 0 0 0 0 0 0 0 0 0 0 0 0 0 0 0
0 0 0 0 0 0 0 0 0 0 0 0 0 0 0 0 0 0 0 0 0 0 0 0 0 0 0 0 0 0 0 0 0 0 0 0 0 0
0 0 0 0 0 0 0 0 0 0 0 0 0 0 0 0 0 0 0 0 0 0 0 0 0 0 0 0 0 0 0 0 -0 -0 0 -0 -0 0
0 0 0 0 0 0 0 0 0 0 0 0 0 0 0 0 0 0 0 0 0 0 0 0 0 0 0 0 0 0 0 -0 -0 -0 0 0 -0 -0
0 0 0 0 0 0 0 0 0 0 0 0 0 0 0 0 0 0 0 0 -0 0 0 0 0 0 0 0 0 0 0 -0 0 0 0 -0 0 -0
0 0 0 0 0 0 0 0 0 0 0 0 0 0 -0 0 0 0 0 0 0 0 0 0 0 0 0 0 0 0 0 -0 -0 -0 0 0 0 0
0 0 0 0 0 0 0 0 0 0 0 0 0 -0 0 0 0 0 0 0 0 0 0 0 0 0 0 0 0 0 0 0 0 0 -0 -0 -0 -0
0 0 0 0 0 0 0 0 0 0 0 0 0 0 0 0 0 0 0 0 0 0 0 0 0 0 0 0 0 0 0 0 0 0 -0 -0 -0 -0
0 0 -0 0 0 0 0 0 0 0 0 0 0 0 0 0 0 0 0 0 0 0 0 0 0 0 0 0 0 0 0 0 0 0 -0 -0 -0 0
0 0 0 0 0 0 0 0 0 -0 0 0 0 0 0 0 0 0 0 0 0 0 0 0 0 0 0 0 0 0 0 0 0 0 0 -0 -0 0
-0 0 0 0 0 0 0 0 0 0 0 0 0 0 0 0 0 0 0 0 0 0 0 0 0 0 0 0 0 0 0 0 0 0 0 0 0 0
-0 -0 -0 0 0 0 0 0 0 0 0 0 0 -0 -0 0 0 0 0 0 0 0 0 0 0 0 0 0 0 0 0 0 0 0 0 0 0 0
-0 -0 0 0 0 0 0 0 -0 -0 -0 -0 0 -0 0 0 0 0 0 0 0 0 0 0 0 0 0 0 0 0 0 0 0 0 0 0 0 0
-0 0 0 0 0 0 0 0 0 0 0 0 -0 -0 -0 0 0 0 0 0 0 0 0 0 0 0 0 0 0 0 0 0 0 0 0 0 0 0
0 0 0 0 0 0 0 0 -0 -0 -0 -0 -0 -0 -0 0 0 0 0 0 -0 0 0 0 0 0 0 0 0 0 0 0 0 0 0 0 0 0
0 0 0 -0 0 0 0 -0 -0 -0 -0 -0 -0 -0 0 0 0 -0 0 0 -0 -0 -0 -0 0 0 0 0 0 -0 0 0 0 0 0 0 0 0
0 -0 0 0 0 0 0 -0 -0 -0 -0 -0 -0 -0 0 0 0 -0 0 -0 -0 -0 -0 -0 -0 0 0 0 0 0 0 0 0 0 0 0 0 0
0 0 0 0 0 0 -0 -0 -0 -0 -0 -0 -0 -0 0 0 0 0 0 0 -0 -0 -0 -0 0 -0 0 0 0 0 0 0 0 0 0 0 0 0
0 0 0 0 0 0 -0 -0 -0 -0 -0 -0 -0 -0 -0 -0 -0 0 0 0 -0 -0 -0 0 0 -0 -0 0 0 0 0 0 0 0 0 0 0 0
0 0 0 0 -0 -0 0 0 0 -0 -0 -0 -0 -0 -0 -0 -0 0 0 0 0 -0 -0 -0 -0 -0 -0 -0 0 0 0 0 0 0 0 0 0 -0
Wind_Speed_500mb
39 31 26 22 21 17 17 17 17 11 13 19 24 30 36 39 43 46 50 50 49 48 38 39 40 42 47 56 56 57 51 51 49 36 38 44 38 40
35 26 23 19 13 13 14 10 9 9 9 18 23 29 34 36 42 48 46 44 46 39 34 37 42 44 45 56 60 57 45 44 37 37 38 38 38 38
28 23 21 11 8 8 4 6 9 11 12 18 23 29 34 41 41 41 44 45 48 39 35 38 46 41 46 57 57 49 39 35 45 39 34 34 37 33
30 24 13 7 5 1 3 7 10 12 15 19 24 32 38 42 45 46 43 45 48 43 38 44 48 47 52 54 46 42 38 45 48 43 38 40 42 39
26 19 13 10 3 3 5 9 13 17 19 24 32 37 42 45 47 50 52 53 49 51 50 54 51 55 57 45 40 37 43 46 49 49 46 45 39 36
27 20 16 12 9 7 8 11 15 18 23 28 32 40 44 49 54 65 70 62 56 51 54 58 56 59 52 36 37 37 45 51 51 47 41 37 36 34
30 23 17 16 10 11 11 13 16 21 26 32 37 39 49 58 64 66 72 79 66 60 65 69 69 69 51 37 36 41 47 50 48 41 39 38 37 36
30 23 21 20 17 15 16 18 24 29 33 37 40 43 49 55 60 67 73 84 71 62 70 79 80 74 47 44 39 44 47 46 42 39 39 39 37 36
31 27 26 25 18 16 21 23 29 31 35 40 40 46 52 55 61 66 66 67 65 60 71 71 83 77 42 51 47 47 47 42 40 39 33 30 31 27
35 31 27 24 21 18 19 21 25 30 37 38 39 41 44 48 53 59 63 64 64 55 74 55 77 82 46 55 59 48 45 42 39 34 27 24 25 26
40 37 30 26 25 20 18 23 26 31 32 34 34 32 36 45 52 54 62 72 77 59 72 75 78 84 59 60 60 52 48 46 37 30 27 27 29 29
44 41 34 28 24 24 20 21 24 30 28 30 30 35 43 47 52 56 58 65 65 49 67 71 79 73 46 60 61 60 51 49 39 34 31 27 25 23
46 43 39 31 27 23 22 27 35 33 33 36 41 43 49 56 56 56 55 55 57 52 56 58 67 63 47 69 67 64 49 52 55 46 42 36 27 26
48 44 40 32 26 27 29 31 31 32 36 46 49 56 62 63 58 55 53 48 44 49 54 50 55 52 49 63 66 68 42 53 50 55 52 46 41 31
49 43 37 33 29 30 26 29 32 41 49 53 57 61 63 61 60 59 58 52 49 53 53 49 47 42 39 52 61 67 73 51 47 50 57 54 54 48
45 41 37 32 31 30 27 37 46 51 52 54 57 60 61 63 65 67 70 71 71 64 59 54 45 40 43 56 61 63 56 50 49 47 57 59 56 58
43 41 37 33 29 31 39 42 46 47 54 55 63 64 65 66 67 70 71 72 72 72 72 61 53 42 44 56 64 62 54 53 48 46 60 60 68 67
41 39 35 32 35 43 40 45 46 52 56 62 62 62 66 68 68 71 74 73 72 70 68 65 63 57 56 55 62 69 58 51 48 52 58 65 66 69
36 37 38 37 41 39 43 41 48 52 55 57 59 62 65 64 70 75 76 74 71 67 63 59 60 60 59 58 65 70 70 55 51 59 62 63 65 61
40 41 39 38 39 39 39 43 47 50 53 56 58 61 60 63 68 72 74 74 71 67 62 54 53 53 51 51 59 65 66 64 60 68 73 70 68 64
41 39 38 37 38 37 41 44 47 49 52 55 57 57 57 59 63 66 68 70 70 65 62 53 45 41 49 52 62 60 65 73 79 77 71 76 85 80
40 38 38 36 35 38 40 42 43 46 51 52 54 54 53 57 60 63 68 72 69 64 56 44 33 33 48 48 54 50 50 55 56 64 72 77 73 72
37 35 35 34 37 37 37 39 42 47 48 50 51 52 54 55 56 59 63 67 67 62 57 48 38 31 40 39 41 43 42 41 46 52 56 58 57 55
Wind_Direction_500mb
218 221 225 230 242 258 267 274 271 276 280 282 303 321 330 336 334 333 335 332 335 330 324 323 319 312 304 301 306 314 311 310 316 312 286 274 279 279
207 212 224 224 242 261 269 280 291 287 285 304 321 332 334 332 334 337 337 336 333 331 331 331 326 319 310 305 313 312 315 315 313 308 302 296 292 276
203 216 209 218 248 259 300 332 332 344 339 330 335 338 334 337 337 343 345 344 342 334 336 336 328 323 316 314 320 320 325 318 313 311 296 287 290 277
197 198 194 203 217 260 355 351 353 355 356 348 346 347 345 343 346 348 356 355 348 342 343 344 340 336 327 330 329 331 332 323 317 315 303 295 291 283
185 180 178 156 122 51 22 13 8 6 5 360 355 348 348 350 353 352 356 2 355 346 343 351 345 338 339 335 337 342 326 327 321 318 309 305 299 290
170 163 154 124 101 67 35 28 25 11 9 3 358 353 353 355 358 355 354 4 360 354 349 353 349 352 348 346 338 335 328 331 325 319 316 311 306 298
159 155 137 115 96 75 58 38 32 17 11 6 3 358 360 360 1 358 351 354 4 353 347 359 356 0 358 356 350 349 337 331 326 320 311 306 301 298
153 140 127 103 90 81 61 41 32 22 14 9 7 3 3 1 358 358 353 355 357 356 344 360 2 3 3 358 348 354 340 333 328 321 313 309 305 299
136 127 109 100 85 60 45 32 28 21 16 16 5 5 4 360 356 354 355 351 356 354 350 355 359 1 5 4 4 356 346 337 331 324 320 316 313 309
124 113 106 103 90 60 44 38 30 24 22 17 11 6 1 358 359 352 349 353 0 3 357 348 357 358 9 11 9 4 355 346 339 331 327 323 313 309
121 112 109 103 91 76 51 41 35 31 25 22 17 10 6 2 359 357 358 4 360 5 358 352 357 353 4 6 6 11 5 5 0 352 342 327 313 303
122 115 108 94 88 74 53 48 47 45 38 32 23 20 17 12 10 9 4 7 1 355 359 353 358 1 341 356 8 13 12 19 17 16 17 5 345 337
120 111 103 93 80 70 59 50 46 41 32 29 25 21 19 20 16 13 13 8 3 360 359 358 354 356 349 346 2 14 19 18 25 28 30 29 14 3
113 106 95 89 78 70 55 51 47 40 32 30 24 22 21 17 16 15 17 19 15 9 6 5 358 0 358 359 1 12 24 24 29 34 33 36 43 34
107 102 98 88 77 67 58 53 47 40 33 28 28 26 21 15 13 16 17 20 27 21 18 15 8 12 19 17 9 12 12 23 28 33 40 36 39 47
107 104 97 91 78 68 60 51 43 36 31 30 28 25 21 17 17 16 16 13 19 25 28 26 24 21 27 30 24 22 30 31 31 41 46 48 49 56
113 104 95 86 81 73 57 47 41 37 33 28 26 23 21 18 17 17 18 18 19 15 20 29 40 36 39 32 31 34 34 37 39 46 57 51 52 57
108 99 97 88 76 60 52 45 38 34 29 27 24 22 21 17 17 19 20 20 19 16 16 21 26 41 50 49 42 40 43 44 45 53 60 59 58 58
106 100 90 77 65 57 50 43 39 32 27 25 25 23 21 17 19 20 19 19 20 19 20 22 29 36 42 38 48 52 43 45 57 60 61 62 66 61
102 91 80 71 64 56 50 43 38 30 26 24 24 23 20 18 20 23 20 19 18 19 23 30 37 47 43 41 40 50 50 54 63 69 70 72 75 76
93 85 77 69 62 54 47 40 34 28 25 22 22 21 19 17 22 23 21 23 22 22 23 30 41 64 54 63 60 59 60 59 55 61 64 63 62 64
89 80 72 66 59 53 45 39 32 27 24 21 20 20 20 19 20 22 22 23 22 24 28 34 52 75 50 59 52 55 57 63 66 65 59 59 61 61
82 73 69 63 59 50 43 37 30 28 22 19 19 19 19 19 20 21 25 24 25 26 30 40 51 59 47 52 51 57 54 57 62 62 60 57 56 58
Wind_Speed_850mb
39 31 26 22 21 17 17 17 17 11 13 19 24 30 36 39 43 46 50 50 49 48 38 39 40 42 47 56 56 57 51 51 49 36 38 44 38 40
35 26 23 19 13 13 14 10 9 9 9 18 23 29 34 36 42 48 46 44 46 39 34 37 42 44 45 56 60 57 45 44 37 37 38 38 38 38
28 23 21 11 8 8 4 6 9 11 12 18 23 29 34 41 41 41 44 45 48 39 35 38 46 41 46 57 57 49 39 35 45 39 34 34 37 33
30 24 13 7 5 1 3 7 10 12 15 19 24 32 38 42 45 46 43 45 48 43 38 44 48 47 52 54 46 42 38 45 48 43 38 40 42 39
26 19 13 10 3 3 5 9 13 17 19 24 32 37 42 45 47 50 52 53 49 51 50 54 51 55 57 45 40 37 43 46 49 49 46 45 39 36
27 20 16 12 9 7 8 11 15 18 23 28 32 40 44 49 54 65 70 62 56 51 54 58 56 59 52 36 37 37 45 51 51 47 41 37 36 34
30 23 17 16 10 11 11 13 16 21 26 32 37 39 49 58 64 66 72 79 66 60 65 69 69 69 51 37 36 41 47 50 48 41 39 38 37 36
30 23 21 20 17 15 16 18 24 29 33 37 40 43 49 55 60 67 73 84 71 62 70 79 80 74 47 44 39 44 47 46 42 39 39 39 37 36
31 27 26 25 18 16 21 23 29 31 35 40 40 46 52 55 61 66 66 67 65 60 71 71 83 77 42 51 47 47 47 42 40 39 33 30 31 27
35 31 27 24 21 18 19 21 25 30 37 38 39 41 44 48 53 59 63 64 64 55 74 55 77 82 46 55 59 48 45 42 39 34 27 24 25 26
40 37 30 26 25 20 18 23 26 31 32 34 34 32 36 45 52 54 62 72 77 59 72 75 78 84 59 60 60 52 48 46 37 30 27 27 29 29
44 41 34 28 24 24 20 21 24 30 28 30 30 35 43 47 52 56 58 65 65 49 67 71 79 73 46 60 61 60 51 49 39 34 31 27 25 23
46 43 39 31 27 23 22 27 35 33 33 36 41 43 49 56 56 56 55 55 57 52 56 58 67 63 47 69 67 64 49 52 55 46 42 36 27 26
48 44 40 32 26 27 29 31 31 32 36 46 49 56 62 63 58 55 53 48 44 49 54 50 55 52 49 63 66 68 42 53 50 55 52 46 41 31
49 43 37 33 29 30 26 29 32 41 49 53 57 61 63 61 60 59 58 52 49 53 53 49 47 42 39 52 61 67 73 51 47 50 57 54 54 48
45 41 37 32 31 30 27 37 46 51 52 54 57 60 61 63 65 67 70 71 71 64 59 54 45 40 43 56 61 63 56 50 49 47 57 59 56 58
43 41 37 33 29 31 39 42 46 47 54 55 63 64 65 66 67 70 71 72 72 72 72 61 53 42 44 56 64 62 54 53 48 46 60 60 68 67
41 39 35 32 35 43 40 45 46 52 56 62 62 62 66 68 68 71 74 73 72 70 68 65 63 57 56 55 62 69 58 51 48 52 58 65 66 69
36 37 38 37 41 39 43 41 48 52 55 57 59 62 65 64 70 75 76 74 71 67 63 59 60 60 59 58 65 70 70 55 51 59 62 63 65 61
40 41 39 38 39 39 39 43 47 50 53 56 58 61 60 63 68 72 74 74 71 67 62 54 53 53 51 51 59 65 66 64 60 68 73 70 68 64
41 39 38 37 38 37 41 44 47 49 52 55 57 57 57 59 63 66 68 70 70 65 62 53 45 41 49 52 62 60 65 73 79 77 71 76 85 80
40 38 38 36 35 38 40 42 43 46 51 52 54 54 53 57 60 63 68 72 69 64 56 44 33 33 48 48 54 50 50 55 56 64 72 77 73 72
37 35 35 34 37 37 37 39 42 47 48 50 51 52 54 55 56 59 63 67 67 62 57 48 38 31 40 39 41 43 42 41 46 52 56 58 57 55
Wind_Direction_850mb
218 221 225 230 242 258 267 274 271 276 280 282 303 321 330 336 334 333 335 332 335 330 324 323 319 312 304 301 306 314 311 310 316 312 286 274 279 279
207 212 224 224 242 261 269 280 291 287 285 304 321 332 334 332 334 337 337 336 333 331 331 331 326 319 310 305 313 312 315 315 313 308 302 296 292 276
203 216 209 218 248 259 300 332 332 344 339 330 335 338 334 337 337 343 345 344 342 334 336 336 328 323 316 314 320 320 325 318 313 311 296 287 290 277
197 198 194 203 217 260 355 351 353 355 356 348 346 347 345 343 346 348 356 355 348 342 343 344 340 336 327 330 329 331 332 323 317 315 303 295 291 283
185 180 178 156 122 51 22 13 8 6 5 360 355 348 348 350 353 352 356 2 355 346 343 351 345 338 339 335 337 342 326 327 321 318 309 305 299 290
170 163 154 124 101 67 35 28 25 11 9 3 358 353 353 355 358 355 354 4 360 354 349 353 349 352 348 346 338 335 328 331 325 319 316 311 306 298
159 155 137 115 96 75 58 38 32 17 11 6 3 358 360 360 1 358 351 354 4 353 347 359 356 0 358 356 350 349 337 331 326 320 311 306 301 298
153 140 127 103 90 81 61 41 32 22 14 9 7 3 3 1 358 358 353 355 357 356 344 360 2 3 3 358 348 354 340 333 328 321 313 309 305 299
136 127 109 100 85 60 45 32 28 21 16 16 5 5 4 360 356 354 355 351 356 354 350 355 359 1 5 4 4 356 346 337 331 324 320 316 313 309
124 113 106 103 90 60 44 38 30 24 22 17 11 6 1 358 359 352 349 353 0 3 357 348 357 358 9 11 9 4 355 346 339 331 327 323 313 309
121 112 109 103 91 76 51 41 35 31 25 22 17 10 6 2 359 357 358 4 360 5 358 352 357 353 4 6 6 11 5 5 0 352 342 327 313 303
122 115 108 94 88 74 53 48 47 45 38 32 23 20 17 12 10 9 4 7 1 355 359 353 358 1 341 356 8 13 12 19 17 16 17 5 345 337
120 111 103 93 80 70 59 50 46 41 32 29 25 21 19 20 16 13 13 8 3 360 359 358 354 356 349 346 2 14 19 18 25 28 30 29 14 3
113 106 95 89 78 70 55 51 47 40 32 30 24 22 21 17 16 15 17 19 15 9 6 5 358 0 358 359 1 12 24 24 29 34 33 36 43 34
107 102 98 88 77 67 58 53 47 40 33 28 28 26 21 15 13 16 17 20 27 21 18 15 8 12 19 17 9 12 12 23 28 33 40 36 39 47
107 104 97 91 78 68 60 51 43 36 31 30 28 25 21 17 17 16 16 13 19 25 28 26 24 21 27 30 24 22 30 31 31 41 46 48 49 56
113 104 95 86 81 73 57 47 41 37 33 28 26 23 21 18 17 17 18 18 19 15 20 29 40 36 39 32 31 34 34 37 39 46 57 51 52 57
108 99 97 88 76 60 52 45 38 34 29 27 24 22 21 17 17 19 20 20 19 16 16 21 26 41 50 49 42 40 43 44 45 53 60 59 58 58
106 100 90 77 65 57 50 43 39 32 27 25 25 23 21 17 19 20 19 19 20 19 20 22 29 36 42 38 48 52 43 45 57 60 61 62 66 61
102 91 80 71 64 56 50 43 38 30 26 24 24 23 20 18 20 23 20 19 18 19 23 30 37 47 43 41 40 50 50 54 63 69 70 72 75 76
93 85 77 69 62 54 47 40 34 28 25 22 22 21 19 17 22 23 21 23 22 22 23 30 41 64 54 63 60 59 60 59 55 61 64 63 62 64
89 80 72 66 59 53 45 39 32 27 24 21 20 20 20 19 20 22 22 23 22 24 28 34 52 75 50 59 52 55 57 63 66 65 59 59 61 61
82 73 69 63 59 50 43 37 30 28 22 19 19 19 19 19 20 21 25 24 25 26 30 40 51 59 47 52 51 57 54 57 62 62 60 57 56 58